Location: Unspecified
(47.4992°N, 121.7766°W)
Time: 02:41:26
(UTC-08:00)

Cosmos 2058 - Pass Details

Date: 01 February 2021
Orbit: 561 x 584 km, 82.5° (Epoch: 24 February)

Event Time Altitude Azimuth Distance (km) Brightness Sun altitude
Rises 05:47:19 0° 355° (N) 2,771 6.3 -18.0°
Reaches altitude 10° 05:49:35 10° 1° (N) 1,867 5.5 -17.6°
Maximum altitude 05:53:34 49° 77° (ENE) 731 3.8 -16.9°
Drops below altitude 10° 05:57:31 10° 153° (SSE) 1,847 6.0 -16.3°
Sets 05:59:44 0° 159° (SSE) 2,738 6.8 -15.9°
